Location: Aranbee
(34.0885°N, 118.2342°W)
Time: 11:50:59
(UTC+00:00)

Tiros 1 - Pass Details

Date: 04 December 2020
Orbit: 630 x 663 km, 48.4° (Epoch: 21 January)

Event Time Altitude Azimuth Distance (km) Brightness Sun altitude
Rises 18:38:36 0° 186° (S) 2,963 11.5 31.5°
Reaches altitude 10° 18:41:50 10° 163° (SSE) 2,062 11.3 31.7°
Maximum altitude 18:44:30 15° 128° (SE) 1,758 10.4 31.8°
Drops below altitude 10° 18:47:11 10° 94° (E) 2,074 10.1 32.0°
Sets 18:50:27 0° 71° (ENE) 2,992 10.5 32.2°
